Regional Weather Roundup
Issued by NWS

Home | Current Version | Previous Version | Text Only | Print | Product List | Glossary On
Versions: 1 2 3 4 5 6 7 8 9 10 11 12 13 14 15 16 17 18 19 20 21 22 23 24 25 26 27 28 29 30 31 32 33 34 35 36 37 38 39 40 41 42 43 44 45 46 47 48 49 50
000
ASUS43 KMKX 020521
RWRWI

WISCONSIN REGIONAL WEATHER ROUNDUP
NATIONAL WEATHER SERVICE MILWAUKEE/SULLIVAN WI
1200 AM CDT THU JUL 02 2015

NOTE: "FAIR" INDICATES FEW OR NO CLOUDS BELOW 12,000 FEET WITH NO
SIGNIFICANT WEATHER AND/OR OBSTRUCTIONS TO VISIBILITY.

WIZ001-002-006>008-014>016-023>028-020600-
NORTHWEST WISCONSIN

CITY           SKY/WX    TMP DP  RH WIND       PRES   REMARKS
SUPERIOR ARPT  CLEAR     53  51  92 E3        30.02R
ASHLAND        CLEAR     49  48  97 SW3       30.03S
HAYWARD        CLEAR     56  53  90 CALM      30.03S
SIREN          NOT AVBL
CUMBERLAND     NOT AVBL
RICE LAKE      NOT AVBL
CHETEK         NOT AVBL
LADYSMITH      NOT AVBL
EAU CLAIRE     CLEAR     56  52  86 CALM      30.00F
MENOMONIE      NOT AVBL
NEW RICHMOND   CLEAR     57  56  97 CALM      30.02S
OSCEOLA        NOT AVBL
$$

WIZ003>005-009-010-017-018-020600-
NORTH CENTRAL WISCONSIN

CITY           SKY/WX    TMP DP  RH WIND       PRES   REMARKS
MANITOWISH WTR NOT AVBL
ARBOR VITAE    CLEAR     52  49  90 CALM      30.05S
WOODRUFF       CLEAR     52  49  90 CALM      30.05S
RHINELANDER    CLEAR     49  46  90 CALM      30.06S
EAGLE RIVER    NOT AVBL
LAND O LAKES   CLEAR     46  45  98 CALM      30.07R
PHILLIPS       NOT AVBL
TOMAHAWK       NOT AVBL
MEDFORD        NOT AVBL
MERRILL        NOT AVBL
$$

WIZ029-030-035-036-043>047-020600-
CENTRAL WISCONSIN

CITY           SKY/WX    TMP DP  RH WIND       PRES   REMARKS
WAUSAU         CLEAR     56  49  77 E9        30.02R
MOSINEE        NOT AVBL
MARSHFIELD     CLEAR     56  48  74 NE3       30.01F
STEVENS POINT  CLEAR     50  47  92 CALM      30.02S
WAUPACA        NOT AVBL
WAUTOMA        CLEAR     53  53 100 CALM      30.02F
WISC RAPIDS    CLEAR     52  49  89 CALM      30.02S
CAMP DOUGLAS   CLEAR     48  48 100 SE5       30.00S
$$

WIZ011>013-019>022-031-037>040-048>050-020600-
NORTHEAST WISCONSIN

CITY           SKY/WX    TMP DP  RH WIND       PRES   REMARKS
ANTIGO         CLEAR     52  49  90 SE7       30.06R
SHAWANO        NOT AVBL
OCONTO         NOT AVBL
STURGEON BAY   CLEAR     48  45  87 CALM      30.06S
GREEN BAY      CLEAR     53  49  86 CALM      30.05R
MANITOWOC      CLEAR     49  49 100 MISG      30.04F
APPLETON       NOT AVBL
CLINTONVILLE   NOT AVBL
OSHKOSH        CLEAR     55  50  83 SE5       30.03R
$$

WIZ032>034-041-042-053>061-020600-
SOUTHWEST WISCONSIN

CITY           SKY/WX    TMP DP  RH WIND       PRES   REMARKS
LA CROSSE      CLEAR     57  54  89 CALM      30.00F
SPARTA         NOT AVBL
VIROQUA        NOT AVBL
BOSCOBEL       FOG       49  48  97 CALM      30.01S VSB 3/4
PRAIRIE DU CHI NOT AVBL
PLATTEVILLE    NOT AVBL
$$

WIZ056-057-062-063-064-067-068-020600-
SOUTH CENTRAL WISCONSIN

CITY           SKY/WX    TMP DP  RH WIND       PRES   REMARKS
REEDSBURG      CLEAR     53  52  95 CALM      30.01S
BARABOO/DELLS  CLEAR     52  48  88 CALM      30.02S
LONE ROCK      CLEAR     51  49  92 E5        30.02R
MINERAL POINT  NOT AVBL
MADISON        CLEAR     56  51  84 SE5       30.01S
MIDDLETON      NOT AVBL
WATERTOWN      NOT AVBL
MONROE         NOT AVBL
JANESVILLE     NOT AVBL
$$

WIZ051-052-058>065-066-070>072-020600-
SOUTHEAST WISCONSIN

CITY           SKY/WX    TMP DP  RH WIND       PRES   REMARKS
MILWAUKEE      CLEAR     53  48  83 N7        30.02F
WAUKESHA       NOT AVBL
MILWAUKEE/TIMM NOT AVBL
RACINE         CLEAR     53  48  83 N7        30.03S
BURLINGTON     NOT AVBL
KENOSHA        CLEAR     51  48  89 N5        30.01S
FOND DU LAC    CLEAR     54  51  90 CALM      30.03S
SHEBOYGAN      CLEAR     46  45  96 CALM      30.03F FOG
WEST BEND      NOT AVBL
JUNEAU         NOT AVBL
$$

LSZ147-162-020600-
LAKE SUPERIOR

STATION/POSITION TIME  TEMP    WIND        PRES    WAVE
                       AIR SEA DIR/SP/G            HT/PER
                 (UTC) (F)     (DEG/KT/KT) (MB)    (FT/S)
W MID LAKE BUOY  0450   47 39  160/  4/  4 1017.0R   0
DEVILS ISLAND    0500   61     140/  5/  5 1016.5S
SAXON HARBOR     0440   53     190/  4/  6 1016.3F
$$

LMZ867-665-643>646-020600-
LAKE MICHIGAN

STATION/POSITION TIME  TEMP    WIND        PRES    WAVE
                       AIR SEA DIR/SP/G            HT/PER
                 (UTC) (F)     (DEG/KT/KT) (MB)    (FT/S)
CHAMBERS ISLAND  0400   56     100/  2/  5 1017.3R
S GREEN BAY BUOY 0430   60 68  120/  6/ 10 1018.5R
N MID LAKE BUOY  0450   49 42   10/  4/  6 1017.3R   1/ 3
NORTHPORT PIER   0400   57      60/  2/  4 1016.9R
SISTER BAY       0414   55     130/  3/  5   N/A
ALGOMA LAKESHORE 0425             CALM       N/A
KEWAUNEE LAKESHO 0400   51     330/  3/  4 1016.5S
SHEBOYGAN LAKESH 0500   55     330/  5/  5 1017.2F
PORT WASHINGTON  0440   54     330/  2/  3 1017.3F
ATWATER BUOY     0500   58      10/  8/ 10 1017.8F
MILWAUKEE LAKESH 0500   57     360/  7/  9   N/A
KENOSHA   LAKESH 0500   56     350/  8/ 11 1015.9S
$$

TC  - TEMPERATURE IN CELSIUS
VSB - VISIBILITY IN STATUTE MILES
WCI - WIND CHILL INDEX
HX  - HEAT INDEX




USA.gov is the U.S. government's official web portal to all federal, state and local government web resources and services.